Location: Krasnoyarskiy Pitomnik
(51.1333°N, 71.6167°E)
Time: 14:53:03
(UTC+00:00)

Transit 2A - Pass Details

Date: 17 April 2024
Orbit: 594 x 958 km, 66.7° (Epoch: 28 May)

Event Time Altitude Azimuth Distance (km) Brightness Sun altitude
Rises 10:11:45 0° 322° (NW) 3,175 9.3 35.7°
Reaches altitude 10° 10:14:02 10° 325° (NW) 2,303 8.6 35.4°
Maximum altitude 10:19:21 69° 49° (NE) 880 6.6 34.7°
Drops below altitude 10° 10:25:12 10° 133° (SE) 2,534 8.6 33.9°
Sets 10:27:49 0° 136° (SE) 3,517 9.3 33.5°
